Location: *
(49.0044°N, 9.5056°E)
Time: 03:31:56
(UTC+00:00)

USA 234 - Pass Details

Date: 22 September 2019
Orbit: 1103 x 1105 km, 123.0° (Epoch: 06 October)

Event Time Altitude Azimuth Distance (km) Brightness Sun altitude
Exits shadow 20:49:57 39° 46° (NE) 1,610 4.0 -31.8°
Maximum altitude 20:51:38 46° 8° (N) 1,443 4.0 -32.0°
Drops below altitude 10° 20:57:49 10° 298° (WNW) 2,967 6.3 -32.7°
Sets 21:00:23 0° 293° (WNW) 3,926 7.0 -33.0°
